TimePDT,TemperatureF,Dew PointF,Humidity,Sea Level PressureIn,VisibilityMPH,Wind Direction,Wind SpeedMPH,Gust SpeedMPH,PrecipitationIn,Events,Conditions,WindDirDegrees,DateUTC
12:53 AM,46.9,39.0,74,29.94,10.0,SW,3.5,-,N/A,,Clear,220,2012-10-08 07:53:00
1:53 AM,48.0,39.9,74,29.95,10.0,Calm,Calm,-,N/A,,Clear,0,2012-10-08 08:53:00
2:53 AM,43.0,37.9,82,29.94,10.0,Calm,Calm,-,N/A,,Clear,0,2012-10-08 09:53:00
3:53 AM,44.1,39.0,82,29.93,10.0,Calm,Calm,-,N/A,,Clear,0,2012-10-08 10:53:00
4:53 AM,44.1,37.9,79,29.94,10.0,SW,5.8,-,N/A,,Clear,220,2012-10-08 11:53:00
5:53 AM,42.1,37.0,82,29.94,10.0,Calm,Calm,-,N/A,,Clear,0,2012-10-08 12:53:00
6:53 AM,39.9,37.0,89,29.94,10.0,Calm,Calm,-,N/A,,Clear,0,2012-10-08 13:53:00
7:53 AM,45.0,39.0,80,29.95,10.0,Calm,Calm,-,N/A,,Clear,0,2012-10-08 14:53:00
8:53 AM,53.1,44.1,71,29.97,10.0,Calm,Calm,-,N/A,,Clear,0,2012-10-08 15:53:00
9:53 AM,60.1,44.1,55,29.97,10.0,Calm,Calm,-,N/A,,Clear,0,2012-10-08 16:53:00
10:53 AM,62.1,44.1,52,29.96,10.0,NNE,5.8,-,N/A,,Clear,30,2012-10-08 17:53:00
11:53 AM,57.0,46.0,67,29.99,10.0,Calm,Calm,-,N/A,,Clear,0,2012-10-08 18:53:00
12:53 PM,63.0,46.9,56,29.97,10.0,Variable,3.5,-,N/A,,Clear,0,2012-10-08 19:53:00
1:53 PM,62.1,44.1,52,29.97,10.0,Calm,Calm,-,N/A,,Clear,0,2012-10-08 20:53:00
2:53 PM,61.0,45.0,56,29.97,10.0,Variable,3.5,-,N/A,,Clear,0,2012-10-08 21:53:00
3:53 PM,60.1,44.1,55,29.96,10.0,WNW,5.8,-,N/A,,Clear,300,2012-10-08 22:53:00
4:53 PM,57.9,45.0,62,29.96,10.0,NW,10.4,-,N/A,,Clear,310,2012-10-08 23:53:00
5:53 PM,57.0,44.1,62,29.96,10.0,WNW,8.1,-,N/A,,Clear,290,2012-10-09 00:53:00
6:53 PM,53.6,46.4,77,29.95,10.0,West,9.2,-,N/A,,Clear,280,2012-10-09 01:53:00
7:53 PM,50.0,46.9,89,29.97,10.0,West,6.9,-,N/A,,Clear,270,2012-10-09 02:53:00
8:22 PM,50.0,48.0,93,29.98,10.0,West,10.4,-,N/A,,Scattered Clouds,280,2012-10-09 03:22:00
8:35 PM,50.0,48.0,93,29.98,9.0,WNW,9.2,-,N/A,,Mostly Cloudy,290,2012-10-09 03:35:00
8:53 PM,50.0,48.0,93,29.99,8.0,WNW,9.2,-,N/A,,Overcast,290,2012-10-09 03:53:00
9:53 PM,50.0,48.9,96,30.00,3.0,WNW,9.2,-,N/A,,Overcast,290,2012-10-09 04:53:00
10:19 PM,50.0,48.9,96,30.01,2.0,West,6.9,-,N/A,,Overcast,280,2012-10-09 05:19:00
10:53 PM,50.0,48.9,96,30.02,2.0,West,8.1,-,N/A,,Overcast,280,2012-10-09 05:53:00
11:18 PM,50.0,48.9,96,30.02,3.0,WNW,5.8,-,N/A,,Overcast,290,2012-10-09 06:18:00
11:53 PM,50.0,48.9,96,30.04,6.0,West,5.8,-,N/A,,Overcast,270,2012-10-09 06:53:00